Time,TemperatureF,DewpointF,PressureIn,WindDirection,WindDirectionDegrees,WindSpeedMPH,WindSpeedGustMPH,Humidity,HourlyPrecipIn,Conditions,Clouds,dailyrainin,SoftwareType,DateUTC
2013-11-01 00:00:00,59.5,58.1,29.88,NW,314,1.0,15.0,95,0.03,,,0.19,meteohub,2013-11-01 04:00:00,
2013-11-01 00:01:00,59.5,58.1,29.88,NW,315,0.0,15.0,95,0.03,,,0.19,meteohub,2013-11-01 04:01:00,
2013-11-01 00:02:00,59.5,58.1,29.88,West,262,2.0,15.0,95,0.03,,,0.19,meteohub,2013-11-01 04:02:00,
2013-11-01 00:03:00,59.5,58.1,29.88,WSW,245,2.0,15.0,95,0.03,,,0.19,meteohub,2013-11-01 04:03:00,
2013-11-01 00:08:00,59.5,58.5,29.88,NNW,332,3.0,10.0,96,0.04,,,0.20,meteohub,2013-11-01 04:08:00,
2013-11-01 00:13:00,59.5,58.1,29.88,SSW,197,7.0,10.0,95,0.04,,,0.20,meteohub,2013-11-01 04:13:00,
2013-11-01 00:18:00,59.5,58.1,29.88,WSW,258,2.0,17.0,95,0.03,,,0.20,meteohub,2013-11-01 04:18:00,
2013-11-01 00:23:00,59.5,58.1,29.87,SSW,197,13.0,17.0,95,0.03,,,0.20,meteohub,2013-11-01 04:23:00,
2013-11-01 00:28:00,59.4,57.9,29.87,WNW,297,2.0,17.0,95,0.03,,,0.20,meteohub,2013-11-01 04:28:00,
2013-11-01 00:33:00,59.4,57.9,29.86,West,278,2.0,15.0,95,0.04,,,0.21,meteohub,2013-11-01 04:33:00,
2013-11-01 00:38:00,59.2,57.7,29.85,NNE,33,3.0,15.0,95,0.03,,,0.21,meteohub,2013-11-01 04:38:00,
2013-11-01 00:43:00,59.2,57.7,29.84,NW,315,3.0,14.0,95,0.03,,,0.21,meteohub,2013-11-01 04:43:00,
2013-11-01 00:48:00,59.0,57.6,29.83,WNW,302,1.0,14.0,95,0.03,,,0.21,meteohub,2013-11-01 04:48:00,
2013-11-01 00:53:00,59.0,57.6,29.83,NW,319,2.0,14.0,95,0.02,,,0.21,meteohub,2013-11-01 04:53:00,
2013-11-01 00:58:00,59.0,57.6,29.84,SE,139,4.0,15.0,95,0.03,,,0.22,meteohub,2013-11-01 04:58:00,
2013-11-01 01:03:00,58.8,57.4,29.84,SE,130,3.0,15.0,95,0.04,,,0.23,meteohub,2013-11-01 05:03:00,
2013-11-01 01:08:00,58.8,57.4,29.84,SSW,209,4.0,15.0,95,0.03,,,0.23,meteohub,2013-11-01 05:08:00,
2013-11-01 01:13:00,58.8,57.4,29.85,West,271,5.0,13.0,95,0.04,,,0.24,meteohub,2013-11-01 05:13:00,
2013-11-01 01:18:00,58.8,57.4,29.85,WSW,253,3.0,17.0,95,0.04,,,0.24,meteohub,2013-11-01 05:18:00,
2013-11-01 01:23:00,58.8,57.4,29.83,South,174,8.0,17.0,95,0.04,,,0.24,meteohub,2013-11-01 05:23:00,
2013-11-01 01:28:00,58.8,57.4,29.81,SE,124,2.0,17.0,95,0.04,,,0.24,meteohub,2013-11-01 05:28:00,
2013-11-01 01:33:00,58.8,57.4,29.81,North,353,0.0,14.0,95,0.03,,,0.24,meteohub,2013-11-01 05:33:00,
2013-11-01 01:38:00,58.6,57.2,29.82,NNW,336,3.0,14.0,95,0.03,,,0.24,meteohub,2013-11-01 05:38:00,
2013-11-01 01:43:00,58.8,57.4,29.80,ESE,117,5.0,20.0,95,0.04,,,0.25,meteohub,2013-11-01 05:43:00,
2013-11-01 01:45:00,58.8,57.4,29.80,SW,215,1.0,20.0,95,0.04,,,0.25,meteohub,2013-11-01 05:45:00,
2013-11-01 01:50:00,58.8,57.4,29.80,WNW,282,4.0,20.0,95,0.03,,,0.25,meteohub,2013-11-01 05:50:00,
2013-11-01 01:55:00,58.6,57.2,29.80,SW,226,4.0,11.0,95,0.03,,,0.25,meteohub,2013-11-01 05:55:00,
2013-11-01 02:00:00,58.6,57.2,29.81,West,276,0.0,12.0,95,0.02,,,0.25,meteohub,2013-11-01 06:00:00,
2013-11-01 02:05:00,58.6,57.2,29.80,West,260,7.0,17.0,95,0.01,,,0.25,meteohub,2013-11-01 06:05:00,
2013-11-01 02:10:00,58.5,57.0,29.81,NE,36,3.0,17.0,95,0.01,,,0.25,meteohub,2013-11-01 06:10:00,
2013-11-01 02:15:00,58.5,57.0,29.80,WNW,299,0.0,17.0,95,0.01,,,0.25,meteohub,2013-11-01 06:15:00,
2013-11-01 02:20:00,58.5,57.0,29.80,SSW,204,0.0,15.0,95,0.01,,,0.25,meteohub,2013-11-01 06:20:00,
2013-11-01 02:25:00,58.5,57.0,29.81,West,262,2.0,15.0,95,0.01,,,0.25,meteohub,2013-11-01 06:25:00,
2013-11-01 02:30:00,58.5,57.0,29.81,ESE,120,1.0,7.0,95,0.01,,,0.25,meteohub,2013-11-01 06:30:00,
2013-11-01 02:35:00,58.5,56.7,29.81,WSW,240,2.0,7.0,94,0.01,,,0.25,meteohub,2013-11-01 06:35:00,
2013-11-01 02:40:00,58.5,56.7,29.81,NNW,327,1.0,7.0,94,0.00,,,0.25,meteohub,2013-11-01 06:40:00,
2013-11-01 02:45:00,58.5,56.7,29.81,WNW,285,3.0,8.0,94,0.00,,,0.25,meteohub,2013-11-01 06:45:00,
2013-11-01 02:50:00,58.5,56.7,29.80,NW,315,0.0,15.0,94,0.00,,,0.25,meteohub,2013-11-01 06:50:00,
2013-11-01 02:55:00,58.5,56.5,29.80,SSW,211,4.0,15.0,93,0.00,,,0.25,meteohub,2013-11-01 06:55:00,
2013-11-01 03:00:00,58.5,56.7,29.79,West,267,4.0,14.0,94,0.00,,,0.25,meteohub,2013-11-01 07:00:00,
2013-11-01 03:05:00,58.3,56.5,29.79,WNW,302,1.0,14.0,94,0.00,,,0.25,meteohub,2013-11-01 07:05:00,
2013-11-01 03:10:00,58.3,56.5,29.79,SE,127,1.0,11.0,94,0.00,,,0.25,meteohub,2013-11-01 07:10:00,
2013-11-01 03:15:00,58.3,56.5,29.79,WNW,287,2.0,11.0,94,0.00,,,0.25,meteohub,2013-11-01 07:15:00,
2013-11-01 03:20:00,58.3,56.5,29.79,NNW,342,3.0,10.0,94,0.00,,,0.25,meteohub,2013-11-01 07:20:00,
2013-11-01 03:25:00,58.3,56.5,29.78,WSW,250,2.0,13.0,94,0.00,,,0.25,meteohub,2013-11-01 07:25:00,
2013-11-01 03:30:00,58.1,56.7,29.78,NNW,327,2.0,13.0,95,0.01,,,0.26,meteohub,2013-11-01 07:30:00,
2013-11-01 03:35:00,57.9,56.5,29.78,WNW,297,0.0,19.0,95,0.04,,,0.29,meteohub,2013-11-01 07:35:00,
2013-11-01 03:41:00,57.9,56.5,29.78,NW,312,0.0,19.0,95,0.07,,,0.32,meteohub,2013-11-01 07:41:00,
2013-11-01 03:46:00,57.9,56.8,29.78,SW,224,3.0,19.0,96,0.08,,,0.33,meteohub,2013-11-01 07:46:00,
2013-11-01 03:51:00,57.9,56.8,29.77,SSE,150,0.0,14.0,96,0.11,,,0.36,meteohub,2013-11-01 07:51:00,
2013-11-01 03:56:00,57.9,56.8,29.77,NW,316,2.0,14.0,96,0.12,,,0.37,meteohub,2013-11-01 07:56:00,
2013-11-01 04:01:00,58.1,57.0,29.77,SW,225,4.0,16.0,96,0.13,,,0.38,meteohub,2013-11-01 08:01:00,
2013-11-01 04:06:00,58.1,57.0,29.77,West,263,3.0,16.0,96,0.16,,,0.41,meteohub,2013-11-01 08:06:00,
2013-11-01 04:11:00,58.1,57.0,29.77,West,281,1.0,16.0,96,0.18,,,0.43,meteohub,2013-11-01 08:11:00,
2013-11-01 04:16:00,57.9,56.8,29.76,West,278,1.0,13.0,96,0.18,,,0.43,meteohub,2013-11-01 08:16:00,
2013-11-01 04:21:00,57.9,56.8,29.76,West,271,4.0,13.0,96,0.18,,,0.43,meteohub,2013-11-01 08:21:00,
2013-11-01 04:26:00,57.9,56.8,29.75,ESE,120,0.0,12.0,96,0.17,,,0.43,meteohub,2013-11-01 08:26:00,
2013-11-01 04:31:00,57.9,57.0,29.75,WNW,290,5.0,8.0,97,0.17,,,0.44,meteohub,2013-11-01 08:31:00,
2013-11-01 04:36:00,57.9,57.0,29.75,WNW,284,0.0,12.0,97,0.15,,,0.45,meteohub,2013-11-01 08:36:00,
2013-11-01 04:41:00,57.9,57.0,29.76,NW,316,1.0,15.0,97,0.13,,,0.45,meteohub,2013-11-01 08:41:00,
2013-11-01 04:46:00,57.9,57.0,29.76,WNW,290,0.0,15.0,97,0.13,,,0.47,meteohub,2013-11-01 08:46:00,
2013-11-01 04:51:00,58.1,57.2,29.76,NW,311,2.0,15.0,97,0.12,,,0.48,meteohub,2013-11-01 08:51:00,
2013-11-01 04:56:00,58.3,57.4,29.76,NW,319,3.0,15.0,97,0.13,,,0.50,meteohub,2013-11-01 08:56:00,
2013-11-01 05:01:00,58.5,57.6,29.75,WNW,299,1.0,13.0,97,0.11,,,0.51,meteohub,2013-11-01 09:01:00,
2013-11-01 05:06:00,58.5,57.6,29.75,West,273,1.0,13.0,97,0.10,,,0.52,meteohub,2013-11-01 09:06:00,
2013-11-01 05:11:00,58.6,57.7,29.75,WSW,253,4.0,8.0,97,0.09,,,0.52,meteohub,2013-11-01 09:11:00,
2013-11-01 05:16:00,58.6,57.7,29.75,NNE,16,2.0,9.0,97,0.09,,,0.52,meteohub,2013-11-01 09:16:00,
2013-11-01 05:21:00,58.8,57.9,29.75,WSW,249,1.0,9.0,97,0.09,,,0.52,meteohub,2013-11-01 09:21:00,
2013-11-01 05:26:00,58.8,57.9,29.75,SSW,207,5.0,9.0,97,0.09,,,0.52,meteohub,2013-11-01 09:26:00,
2013-11-01 05:31:00,59.0,58.1,29.74,SW,228,5.0,12.0,97,0.09,,,0.53,meteohub,2013-11-01 09:31:00,
2013-11-01 05:36:00,59.0,58.1,29.75,WNW,291,2.0,12.0,97,0.08,,,0.53,meteohub,2013-11-01 09:36:00,
2013-11-01 05:41:00,59.0,58.1,29.74,NW,316,4.0,12.0,97,0.07,,,0.53,meteohub,2013-11-01 09:41:00,
2013-11-01 05:46:00,59.2,58.3,29.75,NNE,26,5.0,18.0,97,0.07,,,0.54,meteohub,2013-11-01 09:46:00,
2013-11-01 05:51:00,59.2,58.3,29.74,West,276,4.0,18.0,97,0.07,,,0.55,meteohub,2013-11-01 09:51:00,
2013-11-01 05:56:00,59.2,58.3,29.74,NW,309,2.0,18.0,97,0.06,,,0.56,meteohub,2013-11-01 09:56:00,
2013-11-01 06:01:00,59.2,58.3,29.74,West,263,3.0,14.0,97,0.06,,,0.58,meteohub,2013-11-01 10:01:00,
2013-11-01 06:06:00,59.4,58.5,29.74,SE,124,2.0,10.0,97,0.07,,,0.59,meteohub,2013-11-01 10:06:00,
2013-11-01 06:11:00,59.4,58.5,29.74,SSW,194,3.0,10.0,97,0.07,,,0.59,meteohub,2013-11-01 10:11:00,
2013-11-01 06:16:00,59.5,58.6,29.73,SSW,212,2.0,10.0,97,0.08,,,0.60,meteohub,2013-11-01 10:16:00,
2013-11-01 06:21:00,59.5,58.6,29.74,West,269,2.0,13.0,97,0.09,,,0.61,meteohub,2013-11-01 10:21:00,
2013-11-01 06:26:00,59.5,58.6,29.74,West,276,1.0,13.0,97,0.08,,,0.61,meteohub,2013-11-01 10:26:00,
2013-11-01 06:31:00,59.7,58.8,29.73,West,264,2.0,13.0,97,0.08,,,0.61,meteohub,2013-11-01 10:31:00,
2013-11-01 06:36:00,59.7,58.8,29.74,West,267,3.0,13.0,97,0.09,,,0.62,meteohub,2013-11-01 10:36:00,
2013-11-01 06:41:00,59.9,59.0,29.74,SW,215,5.0,13.0,97,0.09,,,0.62,meteohub,2013-11-01 10:41:00,
2013-11-01 06:46:00,59.9,59.0,29.75,West,260,3.0,13.0,97,0.08,,,0.63,meteohub,2013-11-01 10:46:00,
2013-11-01 06:51:00,59.7,58.8,29.75,SSW,193,3.0,14.0,97,0.08,,,0.63,meteohub,2013-11-01 10:51:00,
2013-11-01 06:56:00,59.7,58.8,29.75,West,260,4.0,14.0,97,0.06,,,0.63,meteohub,2013-11-01 10:56:00,
2013-11-01 07:01:00,59.5,58.6,29.75,South,186,1.0,14.0,97,0.05,,,0.63,meteohub,2013-11-01 11:01:00,
2013-11-01 07:06:00,59.5,58.6,29.76,WNW,297,2.0,11.0,97,0.05,,,0.64,meteohub,2013-11-01 11:06:00,
2013-11-01 07:11:00,59.4,58.5,29.76,WNW,287,1.0,11.0,97,0.04,,,0.64,meteohub,2013-11-01 11:11:00,
2013-11-01 07:16:00,59.4,58.5,29.75,SW,229,4.0,10.0,97,0.04,,,0.64,meteohub,2013-11-01 11:16:00,
2013-11-01 07:21:00,59.4,58.5,29.75,West,280,3.0,12.0,97,0.03,,,0.64,meteohub,2013-11-01 11:21:00,
2013-11-01 07:27:00,59.2,58.3,29.75,West,264,0.0,12.0,97,0.03,,,0.64,meteohub,2013-11-01 11:27:00,
2013-11-01 07:32:00,59.2,58.3,29.75,West,264,2.0,12.0,97,0.02,,,0.64,meteohub,2013-11-01 11:32:00,
2013-11-01 07:37:00,59.2,58.3,29.75,WNW,284,1.0,6.0,97,0.02,,,0.64,meteohub,2013-11-01 11:37:00,
2013-11-01 07:42:00,59.2,58.3,29.75,SW,215,1.0,6.0,97,0.01,,,0.64,meteohub,2013-11-01 11:42:00,
2013-11-01 07:47:00,59.4,58.5,29.75,West,259,2.0,6.0,97,0.01,,,0.64,meteohub,2013-11-01 11:47:00,
2013-11-01 07:52:00,59.4,58.5,29.75,West,260,1.0,7.0,97,0.01,,,0.64,meteohub,2013-11-01 11:52:00,
2013-11-01 07:57:00,59.4,58.5,29.75,WNW,293,0.0,7.0,97,0.01,,,0.64,meteohub,2013-11-01 11:57:00,
2013-11-01 08:02:00,59.4,58.5,29.75,West,273,3.0,7.0,97,0.01,,,0.64,meteohub,2013-11-01 12:02:00,
2013-11-01 08:07:00,59.4,58.5,29.76,NW,306,0.0,6.0,97,0.00,,,0.64,meteohub,2013-11-01 12:07:00,
2013-11-01 08:12:00,59.4,58.5,29.77,WSW,247,3.0,6.0,97,0.00,,,0.64,meteohub,2013-11-01 12:12:00,
2013-11-01 08:17:00,59.4,58.5,29.77,ENE,57,0.0,6.0,97,0.01,,,0.65,meteohub,2013-11-01 12:17:00,
2013-11-01 08:22:00,59.4,58.5,29.78,WSW,256,0.0,4.0,97,0.01,,,0.65,meteohub,2013-11-01 12:22:00,
2013-11-01 08:27:00,59.4,58.5,29.78,WSW,249,0.0,4.0,97,0.01,,,0.65,meteohub,2013-11-01 12:27:00,
2013-11-01 08:32:00,59.4,58.5,29.78,NNW,327,1.0,6.0,97,0.02,,,0.66,meteohub,2013-11-01 12:32:00,
2013-11-01 08:37:00,59.4,58.5,29.78,WNW,290,1.0,6.0,97,0.03,,,0.67,meteohub,2013-11-01 12:37:00,
2013-11-01 08:42:00,59.4,58.5,29.79,WNW,287,2.0,6.0,97,0.06,,,0.70,meteohub,2013-11-01 12:42:00,
2013-11-01 08:47:00,59.4,58.5,29.80,SW,222,4.0,4.0,97,0.08,,,0.72,meteohub,2013-11-01 12:47:00,
2013-11-01 08:52:00,58.6,57.6,29.80,NNE,19,1.0,16.0,96,0.09,,,0.73,meteohub,2013-11-01 12:52:00,
2013-11-01 08:57:00,57.9,56.5,29.80,SSE,167,5.0,17.0,95,0.13,,,0.77,meteohub,2013-11-01 12:57:00,
2013-11-01 09:02:00,57.2,55.8,29.80,WSW,240,3.0,17.0,95,0.17,,,0.81,meteohub,2013-11-01 13:02:00,
2013-11-01 09:07:00,56.7,54.7,29.80,WSW,245,2.0,17.0,93,0.18,,,0.82,meteohub,2013-11-01 13:07:00,
2013-11-01 09:12:00,56.1,54.5,29.80,WSW,245,0.0,9.0,94,0.19,,,0.84,meteohub,2013-11-01 13:12:00,
2013-11-01 09:17:00,55.9,54.3,29.80,WSW,242,2.0,7.0,94,0.20,,,0.85,meteohub,2013-11-01 13:17:00,
2013-11-01 09:22:00,55.8,53.8,29.80,WNW,293,1.0,6.0,93,0.21,,,0.86,meteohub,2013-11-01 13:22:00,
2013-11-01 09:27:00,55.6,53.2,29.80,NW,315,0.0,6.0,92,0.22,,,0.87,meteohub,2013-11-01 13:27:00,
2013-11-01 09:32:00,55.2,52.7,29.80,NW,325,0.0,4.0,91,0.21,,,0.88,meteohub,2013-11-01 13:32:00,
2013-11-01 09:37:00,55.0,52.7,29.80,SW,223,4.0,4.0,92,0.19,,,0.88,meteohub,2013-11-01 13:37:00,
2013-11-01 09:42:00,54.9,52.9,29.80,West,281,0.0,6.0,93,0.18,,,0.89,meteohub,2013-11-01 13:42:00,
2013-11-01 09:47:00,54.7,53.1,29.79,ESE,108,0.0,6.0,94,0.17,,,0.89,meteohub,2013-11-01 13:47:00,
2013-11-01 09:52:00,54.7,53.1,29.79,WSW,257,0.0,6.0,94,0.15,,,0.90,meteohub,2013-11-01 13:52:00,
2013-11-01 09:57:00,54.7,53.1,29.79,SW,215,2.0,3.0,94,0.12,,,0.90,meteohub,2013-11-01 13:57:00,
2013-11-01 10:02:00,54.7,53.2,29.79,WSW,243,0.0,3.0,95,0.08,,,0.90,meteohub,2013-11-01 14:02:00,
2013-11-01 10:07:00,54.9,53.4,29.79,West,281,0.0,3.0,95,0.08,,,0.90,meteohub,2013-11-01 14:07:00,
2013-11-01 10:12:00,55.0,53.6,29.79,West,274,0.0,3.0,95,0.06,,,0.90,meteohub,2013-11-01 14:12:00,
2013-11-01 10:17:00,55.0,53.6,29.79,West,259,0.0,1.0,95,0.04,,,0.90,meteohub,2013-11-01 14:17:00,
2013-11-01 10:22:00,55.2,54.1,29.79,West,260,0.0,1.0,96,0.04,,,0.90,meteohub,2013-11-01 14:22:00,
2013-11-01 10:27:00,55.8,54.7,29.79,SSE,155,0.0,1.0,96,0.03,,,0.90,meteohub,2013-11-01 14:27:00,
2013-11-01 10:32:00,56.1,55.0,29.79,SSE,163,0.0,0.0,96,0.02,,,0.90,meteohub,2013-11-01 14:32:00,
2013-11-01 10:37:00,56.7,55.6,29.78,SSE,163,0.0,0.0,96,0.02,,,0.90,meteohub,2013-11-01 14:37:00,
2013-11-01 10:42:00,57.4,56.3,29.78,SSE,163,0.0,0.0,96,0.01,,,0.90,meteohub,2013-11-01 14:42:00,
2013-11-01 10:47:00,57.7,56.3,29.78,SW,229,0.0,0.0,95,0.00,,,0.90,meteohub,2013-11-01 14:47:00,
2013-11-01 10:52:00,58.1,56.1,29.78,SW,235,0.0,1.0,93,0.00,,,0.90,meteohub,2013-11-01 14:52:00,
2013-11-01 10:57:00,58.5,56.1,29.78,SW,231,0.0,2.0,92,0.00,,,0.90,meteohub,2013-11-01 14:57:00,
2013-11-01 11:02:00,58.8,56.5,29.79,SSW,194,1.0,5.0,92,0.00,,,0.90,meteohub,2013-11-01 15:02:00,
2013-11-01 11:07:00,59.4,57.0,29.79,WSW,238,0.0,5.0,92,0.00,,,0.90,meteohub,2013-11-01 15:07:00,
2013-11-01 11:12:00,60.1,57.4,29.78,SSW,199,2.0,5.0,91,0.00,,,0.90,meteohub,2013-11-01 15:12:00,
2013-11-01 11:17:00,60.4,57.2,29.78,West,274,0.0,4.0,89,0.00,,,0.90,meteohub,2013-11-01 15:17:00,
2013-11-01 11:22:00,60.8,57.2,29.78,West,263,0.0,3.0,88,0.00,,,0.90,meteohub,2013-11-01 15:22:00,
2013-11-01 11:27:00,61.2,57.6,29.78,WNW,298,0.0,6.0,88,0.00,,,0.90,meteohub,2013-11-01 15:27:00,
2013-11-01 11:32:00,61.3,57.4,29.78,NW,308,0.0,6.0,87,0.00,,,0.90,meteohub,2013-11-01 15:32:00,
2013-11-01 11:37:00,61.3,57.2,29.77,WSW,256,0.0,4.0,86,0.00,,,0.90,meteohub,2013-11-01 15:37:00,
2013-11-01 11:42:00,61.3,56.5,29.77,South,170,0.0,2.0,84,0.00,,,0.90,meteohub,2013-11-01 15:42:00,
2013-11-01 11:47:00,61.7,56.8,29.77,WSW,243,1.0,2.0,84,0.00,,,0.90,meteohub,2013-11-01 15:47:00,
2013-11-01 11:52:00,61.9,55.9,29.76,WNW,284,1.0,6.0,81,0.00,,,0.90,meteohub,2013-11-01 15:52:00,
2013-11-01 11:57:00,62.1,57.2,29.76,East,99,0.0,6.0,84,0.00,,,0.90,meteohub,2013-11-01 15:57:00,
2013-11-01 12:02:00,62.4,56.5,29.75,South,191,0.0,6.0,81,0.00,,,0.90,meteohub,2013-11-01 16:02:00,
2013-11-01 12:07:00,62.6,55.2,29.75,SW,226,0.0,4.0,77,0.00,,,0.90,meteohub,2013-11-01 16:07:00,
2013-11-01 12:12:00,63.1,55.8,29.75,East,100,0.0,4.0,77,0.00,,,0.90,meteohub,2013-11-01 16:12:00,
2013-11-01 12:17:00,63.7,56.7,29.75,North,7,1.0,4.0,78,0.00,,,0.90,meteohub,2013-11-01 16:17:00,
2013-11-01 12:22:00,64.0,54.9,29.75,SW,222,1.0,4.0,72,0.00,,,0.90,meteohub,2013-11-01 16:22:00,
2013-11-01 12:27:00,64.4,55.6,29.75,NW,324,0.0,6.0,73,0.00,,,0.90,meteohub,2013-11-01 16:27:00,
2013-11-01 12:32:00,64.9,55.4,29.75,WSW,250,0.0,6.0,71,0.00,,,0.90,meteohub,2013-11-01 16:32:00,
2013-11-01 12:37:00,65.5,53.8,29.75,WSW,249,2.0,6.0,66,0.00,,,0.90,meteohub,2013-11-01 16:37:00,
2013-11-01 12:42:00,65.7,54.3,29.75,SSW,203,1.0,5.0,67,0.00,,,0.90,meteohub,2013-11-01 16:42:00,
2013-11-01 12:47:00,65.8,55.0,29.75,West,265,0.0,5.0,68,0.00,,,0.90,meteohub,2013-11-01 16:47:00,
2013-11-01 12:52:00,66.4,54.7,29.74,WNW,301,2.0,5.0,66,0.00,,,0.90,meteohub,2013-11-01 16:52:00,
2013-11-01 12:57:00,66.6,54.0,29.74,West,275,1.0,5.0,64,0.00,,,0.90,meteohub,2013-11-01 16:57:00,
2013-11-01 13:02:00,66.7,52.9,29.73,SW,233,2.0,5.0,61,0.00,,,0.90,meteohub,2013-11-01 17:02:00,
2013-11-01 13:07:00,66.6,54.9,29.74,ESE,107,2.0,5.0,66,0.00,,,0.90,meteohub,2013-11-01 17:07:00,
2013-11-01 13:12:00,66.4,55.0,29.73,WNW,284,1.0,4.0,67,0.00,,,0.90,meteohub,2013-11-01 17:12:00,
2013-11-01 13:17:00,66.6,54.9,29.73,West,259,2.0,6.0,66,0.00,,,0.90,meteohub,2013-11-01 17:17:00,
2013-11-01 13:22:00,66.6,54.5,29.73,NW,321,0.0,6.0,65,0.00,,,0.90,meteohub,2013-11-01 17:22:00,
2013-11-01 13:27:00,66.4,52.9,29.72,WSW,253,3.0,7.0,62,0.00,,,0.90,meteohub,2013-11-01 17:27:00,
2013-11-01 13:32:00,66.4,53.4,29.72,South,182,2.0,7.0,63,0.00,,,0.90,meteohub,2013-11-01 17:32:00,
2013-11-01 13:37:00,66.2,55.4,29.72,West,265,4.0,8.0,68,0.00,,,0.90,meteohub,2013-11-01 17:37:00,
2013-11-01 13:42:00,65.8,55.4,29.72,West,266,1.0,8.0,69,0.00,,,0.90,meteohub,2013-11-01 17:42:00,
2013-11-01 13:47:00,66.2,55.4,29.72,WNW,282,1.0,8.0,68,0.00,,,0.90,meteohub,2013-11-01 17:47:00,
2013-11-01 13:52:00,66.2,54.9,29.72,SW,224,1.0,7.0,67,0.00,,,0.90,meteohub,2013-11-01 17:52:00,
2013-11-01 13:57:00,66.0,55.6,29.72,West,271,1.0,4.0,69,0.00,,,0.90,meteohub,2013-11-01 17:57:00,
2013-11-01 14:02:00,65.8,55.8,29.72,West,264,1.0,5.0,70,0.00,,,0.90,meteohub,2013-11-01 18:02:00,
2013-11-01 14:07:00,65.5,56.3,29.71,SW,224,1.0,8.0,72,0.00,,,0.90,meteohub,2013-11-01 18:07:00,
2013-11-01 14:12:00,65.5,56.7,29.71,West,273,2.0,9.0,73,0.00,,,0.90,meteohub,2013-11-01 18:12:00,
2013-11-01 14:17:00,65.5,56.7,29.71,NNW,345,1.0,9.0,73,0.00,,,0.90,meteohub,2013-11-01 18:17:00,
2013-11-01 14:22:00,65.7,57.2,29.71,ESE,120,3.0,9.0,74,0.00,,,0.90,meteohub,2013-11-01 18:22:00,
2013-11-01 14:27:00,65.7,56.8,29.70,SSW,208,3.0,8.0,73,0.00,,,0.90,meteohub,2013-11-01 18:27:00,
2013-11-01 14:32:00,65.7,57.2,29.70,SSW,203,0.0,9.0,74,0.00,,,0.90,meteohub,2013-11-01 18:32:00,
2013-11-01 14:37:00,65.7,56.8,29.70,SSE,149,1.0,9.0,73,0.00,,,0.90,meteohub,2013-11-01 18:37:00,
2013-11-01 14:42:00,65.7,56.8,29.69,WSW,252,1.0,8.0,73,0.00,,,0.90,meteohub,2013-11-01 18:42:00,
2013-11-01 14:47:00,65.7,57.9,29.69,West,281,0.0,7.0,76,0.00,,,0.90,meteohub,2013-11-01 18:47:00,
2013-11-01 14:52:00,65.8,57.4,29.69,WSW,250,1.0,5.0,74,0.00,,,0.90,meteohub,2013-11-01 18:52:00,
2013-11-01 14:57:00,65.8,57.7,29.69,West,266,2.0,7.0,75,0.00,,,0.90,meteohub,2013-11-01 18:57:00,
2013-11-01 15:02:00,65.7,57.6,29.69,East,85,4.0,9.0,75,0.00,,,0.90,meteohub,2013-11-01 19:02:00,
2013-11-01 15:07:00,65.8,57.4,29.68,WNW,283,1.0,9.0,74,0.00,,,0.90,meteohub,2013-11-01 19:07:00,
2013-11-01 15:12:00,66.0,57.2,29.68,West,274,2.0,9.0,73,0.00,,,0.90,meteohub,2013-11-01 19:12:00,
2013-11-01 15:17:00,66.0,57.2,29.68,WNW,294,0.0,8.0,73,0.00,,,0.90,meteohub,2013-11-01 19:17:00,
2013-11-01 15:22:00,66.4,57.0,29.67,South,169,3.0,8.0,72,0.00,,,0.90,meteohub,2013-11-01 19:22:00,
2013-11-01 15:27:00,66.6,58.1,29.67,WSW,258,0.0,5.0,74,0.00,,,0.90,meteohub,2013-11-01 19:27:00,
2013-11-01 15:32:00,66.7,57.4,29.67,WNW,284,0.0,5.0,72,0.00,,,0.90,meteohub,2013-11-01 19:32:00,
2013-11-01 15:37:00,66.9,57.9,29.66,South,169,4.0,5.0,73,0.00,,,0.90,meteohub,2013-11-01 19:37:00,
2013-11-01 15:42:00,66.6,56.8,29.66,WSW,241,7.0,7.0,71,0.00,,,0.90,meteohub,2013-11-01 19:42:00,
2013-11-01 15:47:00,66.2,56.8,29.66,West,271,0.0,7.0,72,0.00,,,0.90,meteohub,2013-11-01 19:47:00,
2013-11-01 15:52:00,66.4,57.0,29.66,NW,309,0.0,7.0,72,0.00,,,0.90,meteohub,2013-11-01 19:52:00,
2013-11-01 15:57:00,66.4,57.4,29.66,SW,232,4.0,7.0,73,0.00,,,0.90,meteohub,2013-11-01 19:57:00,
2013-11-01 16:01:00,66.4,58.3,29.66,South,176,1.0,6.0,75,0.00,,,0.90,meteohub,2013-11-01 20:01:00,
2013-11-01 16:06:00,65.8,56.5,29.66,WNW,300,1.0,5.0,72,0.00,,,0.90,meteohub,2013-11-01 20:06:00,
2013-11-01 16:12:00,65.7,57.2,29.66,West,267,0.0,9.0,74,0.00,,,0.90,meteohub,2013-11-01 20:12:00,
2013-11-01 16:17:00,65.5,56.7,29.66,West,277,1.0,9.0,73,0.00,,,0.90,meteohub,2013-11-01 20:17:00,
2013-11-01 16:21:00,65.5,57.0,29.66,West,264,2.0,7.0,74,0.00,,,0.90,meteohub,2013-11-01 20:21:00,
2013-11-01 16:27:00,65.5,56.7,29.66,West,272,0.0,7.0,73,0.00,,,0.90,meteohub,2013-11-01 20:27:00,
2013-11-01 16:32:00,65.5,57.0,29.66,West,276,0.0,5.0,74,0.00,,,0.90,meteohub,2013-11-01 20:32:00,
2013-11-01 16:37:00,65.5,57.0,29.67,SW,232,3.0,5.0,74,0.00,,,0.90,meteohub,2013-11-01 20:37:00,
2013-11-01 16:42:00,65.1,57.0,29.68,West,280,3.0,5.0,75,0.00,,,0.90,meteohub,2013-11-01 20:42:00,
2013-11-01 16:47:00,64.9,56.8,29.67,WNW,287,2.0,5.0,75,0.00,,,0.90,meteohub,2013-11-01 20:47:00,
2013-11-01 16:52:00,64.8,57.0,29.68,West,278,2.0,8.0,76,0.00,,,0.90,meteohub,2013-11-01 20:52:00,
2013-11-01 16:57:00,64.6,57.2,29.68,East,99,4.0,9.0,77,0.00,,,0.90,meteohub,2013-11-01 20:57:00,
2013-11-01 17:02:00,64.2,57.2,29.68,WSW,249,0.0,9.0,78,0.00,,,0.90,meteohub,2013-11-01 21:02:00,
2013-11-01 17:07:00,64.0,57.4,29.68,West,265,1.0,9.0,79,0.00,,,0.90,meteohub,2013-11-01 21:07:00,
2013-11-01 17:12:00,64.0,57.4,29.68,South,183,4.0,9.0,79,0.00,,,0.90,meteohub,2013-11-01 21:12:00,
2013-11-01 17:17:00,63.9,57.2,29.68,SW,219,5.0,6.0,79,0.00,,,0.90,meteohub,2013-11-01 21:17:00,
2013-11-01 17:22:00,63.3,57.0,29.68,SW,220,4.0,10.0,80,0.00,,,0.90,meteohub,2013-11-01 21:22:00,
2013-11-01 17:27:00,63.3,57.0,29.67,SSW,198,3.0,11.0,80,0.00,,,0.90,meteohub,2013-11-01 21:27:00,
2013-11-01 17:32:00,63.1,57.2,29.67,ESE,116,2.0,11.0,81,0.00,,,0.90,meteohub,2013-11-01 21:32:00,
2013-11-01 17:37:00,63.0,57.4,29.67,SSW,193,0.0,11.0,82,0.00,,,0.90,meteohub,2013-11-01 21:37:00,
2013-11-01 17:42:00,63.0,57.0,29.67,WNW,285,1.0,11.0,81,0.00,,,0.90,meteohub,2013-11-01 21:42:00,
2013-11-01 17:47:00,62.8,57.6,29.67,WNW,285,0.0,8.0,83,0.00,,,0.90,meteohub,2013-11-01 21:47:00,
2013-11-01 17:52:00,62.6,58.1,29.68,SSW,192,1.0,8.0,85,0.00,,,0.90,meteohub,2013-11-01 21:52:00,
2013-11-01 17:57:00,62.1,57.7,29.68,WSW,238,1.0,8.0,86,0.00,,,0.90,meteohub,2013-11-01 21:57:00,
2013-11-01 18:02:00,61.5,57.4,29.68,SW,215,1.0,6.0,86,0.00,,,0.90,meteohub,2013-11-01 22:02:00,
2013-11-01 18:07:00,61.2,57.2,29.68,SSE,150,0.0,6.0,87,0.00,,,0.90,meteohub,2013-11-01 22:07:00,
2013-11-01 18:12:00,60.6,57.0,29.68,SE,142,0.0,5.0,88,0.00,,,0.90,meteohub,2013-11-01 22:12:00,
2013-11-01 18:17:00,60.4,57.2,29.68,SW,228,1.0,5.0,89,0.00,,,0.90,meteohub,2013-11-01 22:17:00,
2013-11-01 18:22:00,60.1,56.8,29.68,WSW,243,0.0,3.0,89,0.00,,,0.90,meteohub,2013-11-01 22:22:00,
2013-11-01 18:27:00,59.7,56.8,29.68,West,278,0.0,3.0,90,0.00,,,0.90,meteohub,2013-11-01 22:27:00,
2013-11-01 18:32:00,59.4,56.5,29.68,SW,226,0.0,3.0,90,0.00,,,0.90,meteohub,2013-11-01 22:32:00,
2013-11-01 18:37:00,59.2,56.5,29.68,WSW,246,0.0,3.0,91,0.00,,,0.90,meteohub,2013-11-01 22:37:00,
2013-11-01 18:42:00,58.8,56.1,29.68,West,266,0.0,3.0,91,0.00,,,0.90,meteohub,2013-11-01 22:42:00,
2013-11-01 18:47:00,58.6,56.3,29.68,West,274,0.0,3.0,92,0.00,,,0.90,meteohub,2013-11-01 22:47:00,
2013-11-01 18:52:00,58.5,56.1,29.69,West,266,0.0,3.0,92,0.00,,,0.90,meteohub,2013-11-01 22:52:00,
2013-11-01 18:57:00,58.3,55.9,29.69,WNW,296,0.0,3.0,92,0.00,,,0.90,meteohub,2013-11-01 22:57:00,
2013-11-01 19:02:00,57.9,55.9,29.69,WNW,297,0.0,3.0,93,0.00,,,0.90,meteohub,2013-11-01 23:02:00,
2013-11-01 19:07:00,57.7,55.8,29.69,WSW,256,0.0,3.0,93,0.00,,,0.90,meteohub,2013-11-01 23:07:00,
2013-11-01 19:12:00,57.6,55.6,29.69,SW,219,0.0,2.0,93,0.00,,,0.90,meteohub,2013-11-01 23:12:00,
2013-11-01 19:17:00,57.6,55.6,29.70,SSW,205,1.0,3.0,93,0.00,,,0.90,meteohub,2013-11-01 23:17:00,
2013-11-01 19:22:00,57.4,55.4,29.70,West,276,1.0,3.0,93,0.00,,,0.90,meteohub,2013-11-01 23:22:00,
2013-11-01 19:27:00,57.2,55.2,29.70,West,266,0.0,3.0,93,0.00,,,0.90,meteohub,2013-11-01 23:27:00,
2013-11-01 19:32:00,57.0,55.0,29.70,West,267,0.0,2.0,93,0.00,,,0.90,meteohub,2013-11-01 23:32:00,
2013-11-01 19:37:00,56.8,54.9,29.70,WSW,252,0.0,1.0,93,0.00,,,0.90,meteohub,2013-11-01 23:37:00,
2013-11-01 19:42:00,56.7,54.7,29.71,WSW,253,0.0,1.0,93,0.00,,,0.90,meteohub,2013-11-01 23:42:00,
2013-11-01 19:47:00,56.1,54.1,29.71,WSW,253,0.0,1.0,93,0.00,,,0.90,meteohub,2013-11-01 23:47:00,
2013-11-01 19:52:00,55.9,54.0,29.71,WSW,253,0.0,0.0,93,0.00,,,0.90,meteohub,2013-11-01 23:52:00,
2013-11-01 19:57:00,55.6,53.6,29.71,West,263,0.0,0.0,93,0.00,,,0.90,meteohub,2013-11-01 23:57:00,
2013-11-01 20:02:00,55.2,53.2,29.71,West,263,0.0,0.0,93,0.00,,,0.90,meteohub,2013-11-02 00:02:00,
2013-11-01 20:07:00,55.0,53.4,29.72,ENE,78,0.0,1.0,94,0.00,,,0.00,meteohub,2013-11-02 00:07:00,
2013-11-01 20:12:00,54.9,53.2,29.72,NE,47,0.0,1.0,94,0.00,,,0.00,meteohub,2013-11-02 00:12:00,
2013-11-01 20:17:00,54.5,52.9,29.72,NE,48,0.0,1.0,94,0.00,,,0.00,meteohub,2013-11-02 00:17:00,
2013-11-01 20:22:00,54.1,52.7,29.72,SSW,195,0.0,1.0,95,0.00,,,0.00,meteohub,2013-11-02 00:22:00,
2013-11-01 20:27:00,54.1,52.7,29.72,SSW,195,0.0,1.0,95,0.00,,,0.00,meteohub,2013-11-02 00:27:00,
2013-11-01 20:32:00,53.8,52.3,29.73,SSW,195,0.0,1.0,95,0.00,,,0.00,meteohub,2013-11-02 00:32:00,
2013-11-01 20:37:00,53.6,52.2,29.73,SSW,195,0.0,1.0,95,0.00,,,0.00,meteohub,2013-11-02 00:37:00,
2013-11-01 20:42:00,53.4,52.3,29.73,SSW,195,0.0,0.0,96,0.00,,,0.00,meteohub,2013-11-02 00:42:00,
2013-11-01 20:47:00,53.2,52.2,29.73,WSW,238,0.0,0.0,96,0.00,,,0.00,meteohub,2013-11-02 00:47:00,
2013-11-01 20:52:00,53.4,52.3,29.73,WSW,238,0.0,1.0,96,0.00,,,0.00,meteohub,2013-11-02 00:52:00,
2013-11-01 20:57:00,53.4,52.3,29.73,WSW,239,0.0,1.0,96,0.00,,,0.00,meteohub,2013-11-02 00:57:00,
2013-11-01 21:02:00,53.4,52.3,29.73,WSW,238,0.0,1.0,96,0.00,,,0.00,meteohub,2013-11-02 01:02:00,
2013-11-01 21:07:00,53.4,52.3,29.73,SSW,207,0.0,1.0,96,0.00,,,0.00,meteohub,2013-11-02 01:07:00,
2013-11-01 21:12:00,53.2,52.2,29.73,SSW,207,0.0,1.0,96,0.00,,,0.00,meteohub,2013-11-02 01:12:00,
2013-11-01 21:17:00,53.4,52.5,29.73,SSW,207,0.0,1.0,97,0.00,,,0.00,meteohub,2013-11-02 01:17:00,
2013-11-01 21:22:00,53.4,52.5,29.73,SSW,208,0.0,0.0,97,0.00,,,0.00,meteohub,2013-11-02 01:22:00,
2013-11-01 21:27:00,53.4,52.5,29.73,WSW,249,0.0,1.0,97,0.00,,,0.00,meteohub,2013-11-02 01:27:00,
2013-11-01 21:32:00,53.4,52.5,29.73,WSW,239,0.0,1.0,97,0.00,,,0.00,meteohub,2013-11-02 01:32:00,
2013-11-01 21:37:00,53.4,52.5,29.73,SSW,207,0.0,1.0,97,0.00,,,0.00,meteohub,2013-11-02 01:37:00,
2013-11-01 21:42:00,53.2,52.2,29.73,SSW,203,2.0,2.0,96,0.00,,,0.00,meteohub,2013-11-02 01:42:00,
2013-11-01 21:47:00,53.2,52.2,29.73,SSW,208,1.0,2.0,96,0.00,,,0.00,meteohub,2013-11-02 01:47:00,
2013-11-01 21:52:00,53.2,52.2,29.73,SSW,208,0.0,2.0,96,0.00,,,0.00,meteohub,2013-11-02 01:52:00,
2013-11-01 21:57:00,53.1,51.6,29.73,WSW,250,0.0,2.0,95,0.00,,,0.00,meteohub,2013-11-02 01:57:00,
2013-11-01 22:02:00,53.1,51.4,29.73,SW,222,0.0,2.0,94,0.00,,,0.00,meteohub,2013-11-02 02:02:00,
2013-11-01 22:07:00,52.9,50.9,29.73,SSW,197,0.0,2.0,93,0.00,,,0.00,meteohub,2013-11-02 02:07:00,
2013-11-01 22:12:00,52.7,50.4,29.74,SSW,193,0.0,2.0,92,0.00,,,0.00,meteohub,2013-11-02 02:12:00,
2013-11-01 22:17:00,52.3,49.8,29.74,South,191,0.0,2.0,91,0.00,,,0.00,meteohub,2013-11-02 02:17:00,
2013-11-01 22:22:00,52.2,49.3,29.74,SSW,200,0.0,2.0,90,0.00,,,0.00,meteohub,2013-11-02 02:22:00,
2013-11-01 22:27:00,52.0,49.1,29.75,SSW,201,0.0,1.0,90,0.00,,,0.00,meteohub,2013-11-02 02:27:00,
2013-11-01 22:32:00,51.8,48.7,29.75,SSW,210,0.0,1.0,89,0.00,,,0.00,meteohub,2013-11-02 02:32:00,
2013-11-01 22:37:00,51.6,48.2,29.75,SSW,212,0.0,1.0,88,0.00,,,0.00,meteohub,2013-11-02 02:37:00,
2013-11-01 22:42:00,51.6,47.8,29.75,SW,232,0.0,1.0,87,0.00,,,0.00,meteohub,2013-11-02 02:42:00,
2013-11-01 22:47:00,51.8,48.0,29.75,SSW,211,2.0,2.0,87,0.00,,,0.00,meteohub,2013-11-02 02:47:00,
2013-11-01 22:52:00,51.8,47.5,29.75,SW,227,0.0,2.0,85,0.00,,,0.00,meteohub,2013-11-02 02:52:00,
2013-11-01 22:57:00,51.8,46.8,29.75,SW,221,0.0,2.0,83,0.00,,,0.00,meteohub,2013-11-02 02:57:00,
2013-11-01 23:02:00,51.8,46.4,29.76,SW,233,0.0,2.0,82,0.00,,,0.00,meteohub,2013-11-02 03:02:00,
2013-11-01 23:07:00,51.8,46.2,29.76,SW,235,0.0,2.0,81,0.00,,,0.00,meteohub,2013-11-02 03:07:00,
2013-11-01 23:12:00,51.8,45.9,29.76,SW,219,0.0,1.0,80,0.00,,,0.00,meteohub,2013-11-02 03:12:00,
2013-11-01 23:17:00,51.8,45.1,29.76,SW,221,0.0,1.0,78,0.00,,,0.00,meteohub,2013-11-02 03:17:00,
2013-11-01 23:22:00,51.6,44.6,29.76,SSW,203,0.0,1.0,77,0.00,,,0.00,meteohub,2013-11-02 03:22:00,
2013-11-01 23:27:00,51.6,45.0,29.76,WNW,287,0.0,1.0,78,0.00,,,0.00,meteohub,2013-11-02 03:27:00,
2013-11-01 23:32:00,51.8,45.5,29.76,SW,235,0.0,1.0,79,0.00,,,0.00,meteohub,2013-11-02 03:32:00,
2013-11-01 23:37:00,51.6,45.3,29.77,WSW,245,0.0,1.0,79,0.00,,,0.00,meteohub,2013-11-02 03:37:00,
2013-11-01 23:42:00,51.4,45.1,29.76,WSW,246,0.0,1.0,79,0.00,,,0.00,meteohub,2013-11-02 03:42:00,
2013-11-01 23:47:00,51.4,44.8,29.77,WSW,245,0.0,1.0,78,0.00,,,0.00,meteohub,2013-11-02 03:47:00,
2013-11-01 23:52:00,51.3,44.6,29.76,WSW,245,0.0,1.0,78,0.00,,,0.00,meteohub,2013-11-02 03:52:00,
2013-11-01 23:57:00,51.3,44.6,29.76,West,259,0.0,1.0,78,0.00,,,0.00,meteohub,2013-11-02 03:57:00,